When you browse on this site, cookies collect data to enhance your experience and personalize the content and advertising you see.
Visit our Privacy Policy to learn more. By continuing to use the site, you agree to this use of cookies and data.
  • In Lithuania
  • List of Countries
  • For 7 days
  • Water Temperature
  • Satellite Maps
  • Weather Map
  • Weather Widgets
  • user-avatar
    Login

    Hourly Weather Nam Dinh

    Today, 25 June, Tuesday

    Time Temperature Precipitation Wind Pressure Humidity
    00:00 +31°C° 1.2 mm 1 mps 752 mmHg 88%
    01:00 +31°C° 0 mm 2 mps 753 mmHg 86%
    02:00 +30°C° 0 mm 2 mps 752 mmHg 87%
    03:00 +30°C° 0 mm 1 mps 752 mmHg 88%
    04:00 +30°C° 0 mm 1 mps 752 mmHg 89%
    05:00 +30°C° 0 mm 1 mps 752 mmHg 88%
    06:00 +31°C° 0 mm 1 mps 753 mmHg 87%
    07:00 +31°C° 0 mm 2 mps 753 mmHg 82%
    08:00 +33°C° 0 mm 1 mps 753 mmHg 75%
    09:00 +34°C° 0 mm 1 mps 753 mmHg 69%
    10:00 +36°C° 0 mm 1 mps 753 mmHg 62%
    11:00 +38°C° 0 mm 2 mps 752 mmHg 57%
    12:00 +39°C° 0 mm 2 mps 752 mmHg 53%
    13:00 +40°C° 0 mm 2 mps 752 mmHg 47%
    14:00 +40°C° 0 mm 3 mps 751 mmHg 48%
    15:00 +40°C° 0 mm 4 mps 751 mmHg 50%
    16:00 +40°C° 0 mm 5 mps 750 mmHg 51%
    17:00 +37°C° 0 mm 5 mps 750 mmHg 57%
    18:00 +36°C° 0 mm 4 mps 750 mmHg 62%
    19:00 +34°C° 0 mm 4 mps 751 mmHg 68%
    20:00 +34°C° 0 mm 3 mps 751 mmHg 70%
    21:00 +33°C° 0 mm 3 mps 752 mmHg 72%
    22:00 +32°C° 0 mm 2 mps 753 mmHg 74%
    23:00 +32°C° 0.2 mm 2 mps 752 mmHg 76%

    Tomorrow, 26 June, Wednesday

    Time Temperature Precipitation Wind Pressure Humidity
    00:00 +32°C° 0.2 mm 2 mps 752 mmHg 77%
    01:00 +32°C° 0.2 mm 2 mps 751 mmHg 79%
    02:00 +31°C° 0 mm 2 mps 751 mmHg 80%
    03:00 +31°C° 0 mm 2 mps 751 mmHg 80%
    04:00 +31°C° 0 mm 2 mps 750 mmHg 81%
    05:00 +31°C° 0 mm 2 mps 751 mmHg 79%
    06:00 +31°C° 0 mm 2 mps 751 mmHg 78%
    07:00 +31°C° 0 mm 2 mps 751 mmHg 76%
    08:00 +32°C° 0 mm 2 mps 751 mmHg 72%
    09:00 +34°C° 0 mm 2 mps 751 mmHg 68%
    10:00 +34°C° 0 mm 1 mps 751 mmHg 63%
    11:00 +36°C° 0 mm 1 mps 750 mmHg 58%
    12:00 +37°C° 0 mm 1 mps 749 mmHg 52%
    13:00 +40°C° 0 mm 1 mps 749 mmHg 47%
    14:00 +39°C° 0 mm 3 mps 748 mmHg 50%
    15:00 +38°C° 0 mm 4 mps 747 mmHg 53%
    16:00 +39°C° 0 mm 5 mps 747 mmHg 56%
    17:00 +37°C° 0 mm 4 mps 747 mmHg 60%
    18:00 +35°C° 0 mm 4 mps 747 mmHg 64%
    19:00 +34°C° 0 mm 4 mps 747 mmHg 68%
    20:00 +34°C° 0 mm 4 mps 748 mmHg 68%
    21:00 +34°C° 0 mm 4 mps 748 mmHg 69%
    22:00 +34°C° 0 mm 4 mps 749 mmHg 69%
    23:00 +34°C° 0 mm 4 mps 748 mmHg 69%

    Day after tomorrow, 27 June, Thursday

    Time Temperature Precipitation Wind Pressure Humidity
    00:00 +33°C° 0 mm 4 mps 748 mmHg 69%
    01:00 +33°C° 0 mm 4 mps 747 mmHg 69%
    02:00 +33°C° 0 mm 4 mps 747 mmHg 70%
    03:00 +32°C° 0 mm 4 mps 747 mmHg 71%
    04:00 +31°C° 0 mm 3 mps 747 mmHg 72%
    05:00 +31°C° 0 mm 3 mps 747 mmHg 71%
    06:00 +33°C° 0 mm 4 mps 747 mmHg 70%
    07:00 +33°C° 0 mm 4 mps 748 mmHg 69%
    08:00 +35°C° 0 mm 4 mps 748 mmHg 63%
    09:00 +37°C° 0 mm 4 mps 748 mmHg 57%
    10:00 +38°C° 0 mm 4 mps 748 mmHg 51%
    11:00 +40°C° 0 mm 4 mps 747 mmHg 47%
    12:00 +41°C° 0 mm 4 mps 746 mmHg 43%
    13:00 +42°C° 0 mm 4 mps 746 mmHg 39%
    14:00 +42°C° 0 mm 4 mps 745 mmHg 39%
    15:00 +42°C° 0 mm 5 mps 745 mmHg 40%
    16:00 +42°C° 0 mm 5 mps 744 mmHg 40%
    17:00 +41°C° 0 mm 5 mps 744 mmHg 46%
    18:00 +39°C° 0 mm 5 mps 745 mmHg 52%
    19:00 +36°C° 0 mm 6 mps 745 mmHg 58%
    20:00 +36°C° 0.1 mm 6 mps 746 mmHg 58%
    21:00 +35°C° 0.1 mm 6 mps 747 mmHg 58%
    22:00 +35°C° 0.1 mm 6 mps 747 mmHg 58%
    23:00 +34°C° 1 mm 6 mps 747 mmHg 63%

    28 June, Friday

    Time Temperature Precipitation Wind Pressure Humidity
    00:00 +33°C° 1 mm 5 mps 747 mmHg 68%
    01:00 +32°C° 1 mm 5 mps 746 mmHg 74%
    02:00 +30°C° 0.4 mm 4 mps 746 mmHg 75%
    03:00 +30°C° 0.4 mm 4 mps 746 mmHg 76%
    04:00 +30°C° 0.4 mm 4 mps 746 mmHg 78%
    05:00 +30°C° 0 mm 4 mps 746 mmHg 76%
    06:00 +32°C° 0 mm 4 mps 747 mmHg 73%
    07:00 +33°C° 0 mm 4 mps 747 mmHg 71%
    08:00 +35°C° 0 mm 4 mps 747 mmHg 64%
    09:00 +37°C° 0 mm 3 mps 747 mmHg 57%
    10:00 +39°C° 0 mm 3 mps 747 mmHg 49%
    11:00 +40°C° 0 mm 3 mps 747 mmHg 45%
    12:00 +42°C° 0 mm 4 mps 746 mmHg 42%
    13:00 +43°C° 0 mm 4 mps 746 mmHg 38%
    14:00 +42°C° 0 mm 5 mps 745 mmHg 42%
    15:00 +41°C° 0 mm 5 mps 745 mmHg 45%
    16:00 +40°C° 0 mm 6 mps 744 mmHg 49%
    17:00 +39°C° 0 mm 6 mps 745 mmHg 54%
    18:00 +38°C° 0 mm 6 mps 745 mmHg 59%
    19:00 +35°C° 0 mm 5 mps 745 mmHg 63%
    20:00 +35°C° 0 mm 5 mps 746 mmHg 64%
    21:00 +35°C° 0 mm 5 mps 747 mmHg 65%
    22:00 +34°C° 0 mm 5 mps 748 mmHg 65%
    23:00 +34°C° 0.4 mm 5 mps 747 mmHg 69%

    29 June, Saturday

    Time Temperature Precipitation Wind Pressure Humidity
    00:00 +33°C° 0.4 mm 4 mps 747 mmHg 72%
    01:00 +32°C° 0.4 mm 4 mps 747 mmHg 75%
    02:00 +31°C° 0 mm 3 mps 747 mmHg 76%
    03:00 +30°C° 0 mm 3 mps 747 mmHg 78%
    04:00 +30°C° 0 mm 2 mps 747 mmHg 79%
    05:00 +31°C° 0 mm 2 mps 747 mmHg 77%
    06:00 +31°C° 0 mm 2 mps 747 mmHg 75%
    07:00 +32°C° 0 mm 2 mps 748 mmHg 73%
    08:00 +35°C° 0 mm 2 mps 748 mmHg 66%
    09:00 +36°C° 0 mm 2 mps 748 mmHg 60%
    10:00 +38°C° 0 mm 2 mps 748 mmHg 53%
    11:00 +40°C° 0 mm 2 mps 748 mmHg 49%
    12:00 +41°C° 0 mm 2 mps 747 mmHg 44%
    13:00 +42°C° 0 mm 1 mps 747 mmHg 40%
    14:00 +42°C° 0 mm 2 mps 746 mmHg 41%
    15:00 +42°C° 0 mm 3 mps 746 mmHg 41%
    16:00 +42°C° 0 mm 4 mps 746 mmHg 42%
    17:00 +40°C° 0 mm 4 mps 746 mmHg 48%
    18:00 +37°C° 0 mm 4 mps 746 mmHg 54%
    19:00 +36°C° 0 mm 4 mps 747 mmHg 60%
    20:00 +35°C° 0 mm 4 mps 748 mmHg 63%
    21:00 +35°C° 0 mm 4 mps 748 mmHg 65%
    22:00 +34°C° 0 mm 3 mps 749 mmHg 67%
    23:00 +34°C° 0 mm 3 mps 749 mmHg 69%

    30 June, Sunday

    Time Temperature Precipitation Wind Pressure Humidity
    00:00 +34°C° 0 mm 2 mps 748 mmHg 71%
    01:00 +32°C° 0 mm 2 mps 748 mmHg 72%
    02:00 +32°C° 0 mm 2 mps 748 mmHg 73%
    03:00 +32°C° 0 mm 1 mps 748 mmHg 74%
    04:00 +31°C° 0 mm 1 mps 748 mmHg 75%
    05:00 +32°C° 0 mm 1 mps 748 mmHg 73%
    06:00 +33°C° 0 mm 1 mps 748 mmHg 70%
    07:00 +33°C° 0 mm 1 mps 749 mmHg 68%
    08:00 +36°C° 0 mm 2 mps 749 mmHg 61%
    09:00 +37°C° 0 mm 2 mps 749 mmHg 55%
    10:00 +39°C° 0 mm 3 mps 749 mmHg 48%
    11:00 +40°C° 0 mm 3 mps 749 mmHg 44%
    12:00 +42°C° 0 mm 3 mps 748 mmHg 41%
    13:00 +43°C° 0 mm 3 mps 747 mmHg 37%
    14:00 +42°C° 0 mm 2 mps 747 mmHg 36%
    15:00 +42°C° 0 mm 2 mps 747 mmHg 35%
    16:00 +42°C° 0 mm 2 mps 746 mmHg 34%
    17:00 +40°C° 0 mm 2 mps 747 mmHg 42%
    18:00 +38°C° 0 mm 3 mps 747 mmHg 49%
    19:00 +36°C° 0 mm 3 mps 747 mmHg 57%
    20:00 +36°C° 0 mm 3 mps 748 mmHg 59%
    21:00 +35°C° 0 mm 4 mps 749 mmHg 61%
    22:00 +35°C° 0 mm 4 mps 749 mmHg 63%
    23:00 +34°C° 0 mm 3 mps 749 mmHg 65%
    Show more